Погода Свободный

Погода Свободный : погода сейчас, прогноз погоды и архив. Всё, что Вы хотите узнать о погоде Свободный!

Хотите узнать прогноз погоды Свободный? Тогда Вам сюда: Погода Свободный

Поиск расширенной информации на нашем сайте:

Другие новости

Новости СМИ2

Главная страница сайта

Новости сайта

03.07.2017

Напоминаем, что на нашем специализированном сайте Метеоцентр.Азия вы можете получить высокодетализированные автоматические прогнозы погоды по пунктам России, СНГ и мира в авиационном формате (включающие направление и скорость ветра, видимость, явления погоды, количество и форму облачности, нижнюю и верхнюю границу облачности).

Рекомендуем: калькулятор стоимости пластиковых окон спб

Погода Свободный - сегодня

Время (UTC), дата Ветер
(°,м/с) 
Видим.   Явления Облачность Т
(°С)
Тd
(°С)
f(%) Тe
(°С)
Pmin
(гПа)
dP
(гПа)
Po
(мм)
O2
(г/м3)
Тmin Tmax R s Состояние
почвы
09 18.06.18 050 (СВ) 20000 м  {гроза}  9/9 600 м кучево-дожд., средняя 
[Cb calv|Ac cuf]
+20.3 +12.3 60 +25  998  -0.7  731  272           
12 18.06.18 060 (СВ) 20000 м  {гроза}  9/6 600 м кучево-дожд., средняя 
[Cb calv|Ac As]
+16.4 +10.8 69 +20  999.1  0.7  732  276    +22.8       
15 18.06.18 020 (С) 50000 м    10/0 средняя 
[Ac und]
+12.9 +8.7 76 +14  999  -0.3  732  280           
18 18.06.18 350 (С) 50000 м    9/0 средняя 
[Ac trans]
+11.1 +8.1 82 +12  997.9  -1.3  731  281           
21 18.06.18 330 (СЗ) 20000 м    10/0 средняя, верхняя 
[Ac trans|Ci sp]
+9.7 +6.4 80 +11  997.8  -0.2  731  283           
00 19.06.18 340 (С) 20000 м    8/0 средняя, верхняя 
[Ac trans|Ci fib]
+14.3 +6.9 61 +15  997.3  0.1  731  279  +9.1        влажная 
03 19.06.18 350 (С) 20000 м    10/6 1000 м средняя 
[Sc|Ac As]
+15.5 +7.8 60 +16  997.8  0.6  731  277           
06 19.06.18 340 (С) 20000 м    10/8 1000 м средняя 
[Sc|Ac As]
+16.3 +9.3 63 +19  998.6  0.8  732  276           
09 19.06.18 010 (С) 20000 м    8/1 1000 м средняя, верхняя 
[Sc|Ac trans|Ci fib]
+17.8 +8.1 53 +19  999.5  732  276           
15 19.06.18 060 (СВ) 50000 м    9/8 1000 м средняя 
[Sc|Ac As]
+10.8 +5.2 68 +12  1002.6  1.2  734  284           
18 19.06.18 тихо ()   50000 м    4/0 средняя 
[Ac trans]
+6.5 +5.4 93 +7  1002.7  -0.3  734  288           
21 19.06.18 290 (З) 20000 м    8/0 средняя, верхняя 
[Ac trans|Ci fib]
+7.4 +6.5 94 +8  1003.1  0.5  734  287           
00 20.06.18 020 (С) 20000 м    6/0 верхняя 
[Ci]
+14.9 +5.8 54 +16  1002.4  0.1  734  280  +4.1        сухая 
03 20.06.18 350 (С) 20000 м    4/1 1000 м верхняя 
[Cu hum|Cc]
+18.3 +7.7 50 +19  1001.1  -0.9  734  276           
06 20.06.18 350 (С) 20000 м    4/4 600 м кучево-дожд. 
[Cb calv]
+20.9 +9 46 +21  999.6  -1.3  733  273           
09 20.06.18 090 (В) 20000 м    1/1 1000 м 
[Sc diur, vesp]
+20.8 +9.5 48 +22  999.2  -0.4  732  272           
15 20.06.18 290 (З) 50000 м    4/0 средняя 
[Ac trans]
+9.7 +8.6 93 +11  1001  0.1  733  284           
18 20.06.18 300 (СЗ) 50000 м    3/0 верхняя 
[Ci fib]
+8.4 +7.7 95 +9  1000.5  -0.6  732  285           
21 20.06.18 290 (З) 20000 м    ясно 
+10.1 +9.5 96 +12  1001.1  0.8  733  283           
03 21.06.18 230 (ЮЗ) 20000 м    3/3 1000 м 
[Cu med, cong]
+22.3 +10.6 47 +25  998.8  -1.2  732  271           
06 21.06.18 300 (СЗ) 20000 м    8/8 600 м кучево-дожд. 
[Cb calv]
+24.8 +9.7 38 +26  996.7  -1.8  731  268           
09 21.06.18 160 (Ю) 20000 м  {гроза}  8/4 1000 м средняя 
[Sc diur, vesp|Ac cuf]
+21.8 +13.3 58 +28  996.5  -0.5  730  270           
12 21.06.18 тихо ()   20000 м  {гроза}  3/3 1000 м 
[Sc diur, vesp]
+15.4 +13.2 87 +22  996.8  -0.2  730  276    +25.7       
15 21.06.18 тихо ()   50000 м    ясно 
+12.3 +11.5 95 +16  996.4  -0.6  730  279           
18 21.06.18 080 (В) 50000 м    10/3 1000 м кучево-дожд., верхняя 
[Cb calv|Ci fib]
+11.8 +11.1 95 +16  995.3  -1.1  729  279           
Время (UTC), дата Ветер
(°,м/с) 
Видим.   Явления Облачность Т
(°С)
Тd
(°С)
f(%) Тe
(°С)
Pmin
(гПа)
dP
(гПа)
Po
(мм)
O2
(г/м3)
Тmin Tmax R s Состояние
почвы

Для получения пояснительной информации подведите курсор к названию столбца.

ПОГОДА Свободный - архив

Всё, что Вы хотите узнать о погоде Свободный - удобно и подробно!

Выберите нужную дату (начиная с 1 января 2015* года) и нажмите кнопку "Найти".
Будут отображены архивные сводки погоды по пункту Свободный, начиная с указанной даты.


Отображать данные в формате CSV (для использования в таблицах Excel)


Внимание! Наш архив погоды предназначен исключительно для личного некоммерческого использования в познавательных целях. Если Вам необходимы официальные справки о состоянии погоды (для производственных, юридических, коммерческих и т.п. целей), обращайтесь в органы Росгидромета.

*Примечание: данная дата относится к архиву по метеостанциям СССР (Россия, СНГ, Балтия).
Архив по метеостанциям Зарубежной Европы и Азии (кроме Китая) хранится 10 дней, по другим регионам земного шара (Китай, Африка, Америка, Австралия, Океания) - 1 день.

Свободный - район местоположения метеостанции


Название, широта, долгота, высота метеостанции:
Свободный 51.4°ш. 128.1°д. 197 м над ур. моря [Российская Федерация]

Дополнительная информация

В oтличие oт бoльшинства пoгoдных сайтoв мы публикуем пoдрoбную метеoинфoрмацию в детальнoм прoфессиoнальнoм фoрмате.

Характеристики температуры и влажнoсти вoздуха измеряются на высoте 2 м в тени вдали oт зданий и деревьев.
Скoрoсть ветра измеряется на высoте 10 м (на урoвне рoста челoвека скoрoсть ветра ниже в 1.5-2 раза). Если метеoстанция нахoдится в гoрoде или в лесу, тo скoрoсть ветра занижена на 2-4 м/с пo сравнению с oткрытым местoм. Скoрoсть ветра над акватoриями крупных рек и oзёр, а также на вершинах хoлмoв на 2-5 м/с выше, чем в oбычных услoвиях.
Атмoсфернoе давление в разных тoчках местнoсти мoжет значительнo oтличаться oт давления на метеoстанции, в зависимoсти oт услoвий рельефа (при пoдъёме на 10 м давление пoнижается примернo на 1 мм рт.ст.).